{"data":{"norad_id":81478,"intl_designator":"","name":"UNKNOWN","alt_names":[],"object_type":"UNKNOWN","status":"UNKNOWN","operator":null,"country":null,"launch_date":null,"launch_site_code":null,"launch_vehicle":null,"mission":null,"orbit_class":"UNKNOWN","rcs_meters":null,"size_class":null,"mass_kg":null,"dimensions":null,"purposes":[],"wikipedia_slug":null,"has_3d_model":false,"image_url":null,"decayed_at":null,"tle_current":{"epoch":"2026-05-22T06:13:52.845024Z","epoch_age_seconds":302063,"freshness":"STALE","line1":"1 81478U          26142.25963941  .00002226  00000+0  79681-3 0  9997","line2":"2 81478  98.9513  63.4518 0142020 252.3899 261.3810 14.29614178645862","mean_motion":14.29614178,"eccentricity":0.014202,"inclination_deg":98.9513,"raan_deg":63.4518,"arg_perigee_deg":252.3899,"mean_anomaly_deg":261.381,"bstar":0.00079681,"rev_number":64586,"period_min":100.72647726637,"perigee_km":691.1759805213,"apogee_km":894.86554562361,"semimajor_km":7171.1577630725,"source":"CELESTRAK","updated_at":"2026-05-25T13:38:09.453579Z"}}}